Location: Beekmeers
(50.8953°N, 3.6968°E)
Time: 14:58:29
(UTC+00:00)

Cosmos 1825 - Pass Details

Date: 23 May 2024
Orbit: 439 x 443 km, 82.5° (Epoch: 16 June)

Event Time Altitude Azimuth Distance (km) Brightness Sun altitude
Exits shadow 02:34:17 - 167° (SSE) 2,387 5.2 -9.1°
Reaches altitude 10° 02:36:21 10° 157° (SSE) 1,564 4.4 -8.8°
Maximum altitude 02:39:25 32° 92° (E) 786 3.6 -8.5°
Drops below altitude 10° 02:42:32 10° 28° (NNE) 1,582 6.2 -8.2°
Sets 02:44:44 0° 18° (NNE) 2,461 7.0 -8.0°
